Flag for Thailand Weather past 2 weeks in Phuket, Thailand

Now
81 °F

Passing clouds.


Feels Like: 86 °F
Forecast: 78 / 86 °F
Wind: 3 mph from Northwest

Location: Phuket Airport

Current Time: Sep 1, 2015 at 10:11:59 PM

Latest Report: Sep 1, 2015 at 9:30 PM


Visibility: N/A

Pressure: 29.89 "Hg

Humidity: 84%

Dew point: 75 °F

Location of PhuketLocation

Historic Weather in Phuket — Graph

°F

Phuket temperature yesterday

Maximum temperature yesterday: 88 °F (at 2:30 PM)
Minimum temperature yesterday: 77 °F (at 1:30 AM)
Average temperature yesterday: 82 °F

Past Weeks' High & Low Weather Summary

 TemperatureHumidityPressure
High90 °F (Aug 26, 1:30 PM)100% (Aug 27, 4:00 PM)29.95 "Hg (Aug 27, 4:00 PM)
Low37 °F (Aug 27, 4:00 PM)59% (Aug 18, 10:30 AM)29.62 "Hg (Aug 19, 4:30 PM)
Average82 °F78%29.86 "Hg
* Reported Aug 17 9:00 PM — Sep 1 9:00 PM, Phuket, Weather by CustomWeather, © 2015

Note: Actual official high and low records may vary slightly from our data, if they occured in-between our weather recording intervals... More about our weather records

Advertising

Phuket weather history for previous 24 hours

 ConditionsComfort  
Time TempWeatherWind HumidityBarometerVisibility
9:00 PM
Tue, Sep 1
81 °FPassing clouds.3 mph84%29.89 "HgN/A
8:30 PM79 °FPassing clouds.No wind89%29.86 "HgN/A
8:00 PM81 °FPassing clouds.No wind84%29.86 "HgN/A
7:30 PM81 °FPartly cloudy.No wind84%29.86 "HgN/A
7:00 PM81 °FPassing clouds.No wind84%29.83 "HgN/A
6:30 PM82 °FPartly sunny.6 mph74%29.83 "HgN/A
6:00 PM82 °FPartly sunny.6 mph74%29.83 "HgN/A
5:30 PM82 °FPartly sunny.6 mph74%29.83 "HgN/A
5:00 PM84 °FPartly sunny.9 mph70%29.80 "HgN/A
4:30 PM84 °FPartly sunny.7 mph70%29.80 "HgN/A
4:00 PM84 °FPartly sunny.7 mph70%29.80 "HgN/A
3:30 PM86 °FPartly sunny.6 mph66%29.83 "HgN/A
3:00 PM86 °FPartly sunny.8 mph62%29.83 "HgN/A
2:00 PM86 °FBroken clouds.6 mph62%29.83 "HgN/A
1:30 PM86 °FPartly sunny.8 mph62%29.83 "HgN/A
1:00 PM84 °FPartly sunny.9 mph66%29.86 "HgN/A
12:30 PM84 °FPartly sunny.12 mph66%29.86 "HgN/A
12:00 PM84 °FPartly sunny.9 mph70%29.89 "HgN/A
11:30 AM84 °FPartly sunny.9 mph70%29.89 "HgN/A
10:30 AM82 °FPartly sunny.6 mph74%29.89 "HgN/A
10:00 AM82 °FPartly sunny.7 mph74%29.92 "HgN/A
9:30 AM81 °FPartly sunny.6 mph79%29.89 "HgN/A
9:00 AM79 °FPartly sunny.8 mph84%29.89 "HgN/A
8:30 AM81 °FPartly sunny.8 mph79%29.89 "HgN/A
8:00 AM77 °FBroken clouds.8 mph89%29.89 "Hg5 mi
7:30 AM77 °FBroken clouds.12 mph83%29.89 "Hg5 mi
7:00 AM77 °FBroken clouds.9 mph83%29.86 "Hg4 mi
6:30 AM79 °FBroken clouds.12 mph79%29.86 "Hg4 mi
6:00 AM79 °FPartly cloudy.8 mph79%29.86 "Hg4 mi
5:30 AM77 °FPartly cloudy.10 mph89%29.86 "Hg4 mi
4:30 AM77 °FPartly cloudy.6 mph83%29.83 "Hg4 mi
4:00 AM79 °FPartly cloudy.10 mph84%29.86 "Hg4 mi
3:00 AM77 °FPartly cloudy.12 mph83%29.86 "Hg4 mi
2:30 AM81 °FRain. Partly cloudy.12 mph84%29.86 "Hg3 mi
2:00 AM81 °FPartly cloudy.9 mph84%29.86 "Hg4 mi
1:30 AM81 °FPartly cloudy.8 mph84%29.89 "Hg4 mi
1:00 AM79 °FPartly cloudy.7 mph84%29.89 "Hg4 mi
12:30 AM81 °FRain. Partly cloudy.14 mph84%29.89 "Hg3 mi
12:00 AM81 °FPartly cloudy.10 mph84%29.92 "Hg6 mi
11:30 PM
Mon, Aug 31
81 °FPartly cloudy.8 mph79%29.92 "Hg6 mi
11:00 PM82 °FPartly cloudy.12 mph74%29.92 "Hg6 mi
10:30 PM84 °FPartly cloudy.8 mph74%29.92 "Hg6 mi
10:00 PM84 °FPartly cloudy.10 mph70%29.92 "Hg6 mi
Weather by CustomWeather, © 2015

See weather overviewHow to use our weather pages